Melbourne Airport, Australia

2:45 PM AEST on June 25, 2018 (GMT +1000)
Melbourne International

Weather History for YMML - August, 2017

Change the Weather History Date:

Sunday, August 13, 2017

  Actual Average Record
Temperature  
Mean Temperature 55 °F -  
Max Temperature 64 °F 57 °F 64 °F (2017)
Min Temperature 46 °F 42 °F 35 °F (2011)
Degree Days  
Heating Degree Days 10    
Growing Degree Days 5 (Base 50)    
Moisture  
Dew Point 43 °F    
Average Humidity 64    
Maximum Humidity 100    
Minimum Humidity 34    
Precipitation  
Precipitation 0.00 in 0.06 in - ()
Sea Level Pressure  
Sea Level Pressure 30.08 in    
Wind  
Wind Speed 13 mph ()    
Max Wind Speed 26 mph    
Max Gust Speed 38 mph    
Visibility 7.2 miles    
Events      
Averages and records for this station are not official NWS values.
T = Trace of Precipitation, MM = Missing Value Source: Averaged Metar Reports

Daily Weather History Graph

Daily Weather History Graph

Search for Another Location

Airport or City:

Astronomy

Aug. 13, 2017 Rise Set
Actual Time 7:07 AM AEST 5:43 PM AEST
Civil Twilight 6:40 AM AEST 6:10 PM AEST
Nautical Twilight 6:09 AM AEST 6:41 PM AEST
Astronomical Twilight 5:39 AM AEST 7:12 PM AEST
Moon 11:19 PM AEST (8/13) 10:13 AM AEST (8/13)
Length of Visible Light 11h 30m
Length of Day
10h 35m
Waning Gibbous, 71% of the Moon is Illuminated
Aug 13
Waning Gibbous
Aug 15
Last Quarter
Aug 22
New
Aug 29
First Quarter
Sep 6
Full

Hourly Weather History & Observations

Time (AEST) Temp. Windchill Dew Point Humidity Pressure Visibility Wind Dir Wind Speed Gust Speed Precip Events Conditions
12:00 AM 51 °F - 50 °F 94% 30.14 in 19 mi Calm Calm - -   Mostly Cloudy
12:00 AM 51.8 °F - 50.0 °F 94% 30.12 in 6.2 mi Calm Calm - N/A   Mostly Cloudy
12:30 AM 51.8 °F - 50.0 °F 94% 30.12 in 6.2 mi ENE 4.6 mph - N/A   Mostly Cloudy
1:00 AM 51 °F - 50 °F 95% 30.14 in - ENE 4.6 mph - -  
1:00 AM 50.0 °F - 50.0 °F 100% 30.12 in 6.2 mi ENE 4.6 mph - N/A   Mostly Cloudy
1:30 AM 50.0 °F - 50.0 °F 100% 30.12 in - North 8.1 mph - N/A   Clear
2:00 AM 50 °F - 48 °F 92% 30.14 in - North 9.2 mph - -  
2:00 AM 50.0 °F - 48.2 °F 94% 30.12 in - North 9.2 mph - N/A   Clear
3:00 AM 52 °F - 46 °F 74% 30.14 in 19 mi NNW 10.4 mph - -   Partly Cloudy
3:00 AM 51.8 °F - 46.4 °F 82% 30.12 in 6.2 mi NNW 10.4 mph - N/A   Mostly Cloudy
3:30 AM 51.8 °F - 46.4 °F 82% 30.12 in - NNW 9.2 mph - N/A   Clear
4:00 AM 51 °F - 46 °F 76% 30.13 in - North 11.5 mph - -  
4:00 AM 51.8 °F - 46.4 °F 82% 30.12 in - North 11.5 mph - N/A   Clear
5:00 AM 49 °F - 44 °F 78% 30.12 in - North 11.5 mph - -  
5:00 AM 50.0 °F - 44.6 °F 82% 30.09 in - North 11.5 mph - N/A   Clear
5:30 AM 48.2 °F - 44.6 °F 87% 30.12 in - North 12.7 mph - N/A   Clear
6:00 AM 46 °F - 45 °F 96% 30.14 in 12 mi North 17.3 mph - -   Partly Cloudy
6:00 AM 46.4 °F 39.5 °F 44.6 °F 93% 30.12 in 6.2 mi North 17.3 mph - N/A   Scattered Clouds
6:30 AM 48.2 °F - 46.4 °F 93% 30.12 in 6.2 mi North 15.0 mph - N/A   Scattered Clouds
7:00 AM 47 °F - 46 °F 93% 30.15 in - North 12.7 mph - -  
7:00 AM 46.4 °F 40.7 °F 46.4 °F 100% 30.12 in 6.2 mi North 12.7 mph - N/A   Scattered Clouds
7:30 AM 48.2 °F - 44.6 °F 87% 30.12 in 6.2 mi North 17.3 mph - N/A   Scattered Clouds
8:00 AM 49 °F - 46 °F 83% 30.16 in - North 18.4 mph - -  
8:00 AM 48.2 °F - 46.4 °F 93% 30.15 in 6.2 mi North 18.4 mph - N/A   Scattered Clouds
8:30 AM 50.0 °F - 46.4 °F 87% 30.15 in 6.2 mi North 17.3 mph - N/A   Scattered Clouds
9:00 AM 51 °F - 46 °F 79% 30.16 in 22 mi North 19.6 mph - -   Partly Cloudy
9:00 AM 51.8 °F - 46.4 °F 82% 30.15 in 6.2 mi North 19.6 mph - N/A   Scattered Clouds
9:30 AM 51.8 °F - 46.4 °F 82% 30.15 in 6.2 mi North 17.3 mph - N/A   Scattered Clouds
10:00 AM 54 °F - 46 °F 67% 30.15 in - North 21.9 mph - -  
10:00 AM 53.6 °F - 46.4 °F 77% 30.12 in 6.2 mi North 21.9 mph - N/A   Scattered Clouds
10:30 AM 57.2 °F - 46.4 °F 67% 30.12 in 6.2 mi North 20.7 mph - N/A   Scattered Clouds
11:00 AM 59 °F - 45 °F 49% 30.13 in - North 21.9 mph - -  
11:00 AM 59.0 °F - 44.6 °F 59% 30.12 in 6.2 mi North 21.9 mph - N/A   Scattered Clouds
11:30 AM 59.0 °F - 42.8 °F 55% 30.09 in 6.2 mi North 21.9 mph - N/A   Mostly Cloudy
12:00 PM 61 °F - 43 °F 41% 30.11 in 22 mi North 23.0 mph - -   Partly Cloudy
12:00 PM 60.8 °F - 42.8 °F 52% 30.09 in 6.2 mi North 23.0 mph - N/A   Mostly Cloudy
12:22 PM 62.6 °F - 42.8 °F 48% 30.09 in 6.2 mi North 20.7 mph 32.2 mph N/A   Mostly Cloudy
12:30 PM 60.8 °F - 41.0 °F 48% 30.06 in 6.2 mi North 21.9 mph - N/A   Mostly Cloudy
1:00 PM 61 °F - 45 °F 45% 30.08 in - North 19.6 mph - -  
1:00 PM 60.8 °F - 44.6 °F 55% 30.06 in 6.2 mi North 19.6 mph - N/A   Mostly Cloudy
1:30 PM 62.6 °F - 39.2 °F 42% 30.04 in 6.2 mi North 23.0 mph - N/A   Scattered Clouds
2:00 PM 63 °F - 44 °F 38% 30.05 in - North 21.9 mph - -  
2:00 PM 62.6 °F - 44.6 °F 52% 30.04 in 6.2 mi North 21.9 mph - N/A   Mostly Cloudy
2:30 PM 62.6 °F - 42.8 °F 48% 30.04 in 6.2 mi North 23.0 mph - N/A   Mostly Cloudy
3:00 PM 64.4 °F - 39.2 °F 40% 30.01 in 6.2 mi North 20.7 mph - N/A   Mostly Cloudy
4:00 PM 62 °F - 41 °F 34% 30.04 in - North 19.6 mph - -  
4:00 PM 62.6 °F - 41.0 °F 45% 30.01 in 6.2 mi North 19.6 mph - N/A   Mostly Cloudy
4:30 PM 62.6 °F - 41.0 °F 45% 30.01 in 6.2 mi North 21.9 mph - N/A   Scattered Clouds
5:00 PM 61 °F - 41 °F 37% 30.03 in - North 18.4 mph - -  
5:00 PM 60.8 °F - 41.0 °F 48% 30.01 in 6.2 mi North 18.4 mph - N/A   Scattered Clouds
5:30 PM 59.0 °F - 42.8 °F 55% 30.01 in 6.2 mi North 17.3 mph - N/A   Partly Cloudy
6:00 PM 57 °F - 40 °F 41% 30.03 in 22 mi North 17.3 mph - -   Partly Cloudy
6:00 PM 57.2 °F - 39.2 °F 51% 30.01 in - North 17.3 mph - N/A   Clear
6:10 PM 57.2 °F - 41.0 °F 55% 30.01 in - North 18.4 mph 31.1 mph N/A   Clear
6:30 PM 57.2 °F - 41.0 °F 55% 30.01 in - North 19.6 mph - N/A   Clear
6:55 PM 55.4 °F - 41.0 °F 58% 30.01 in - North 20.7 mph 34.5 mph N/A   Clear
7:00 PM 56 °F - 41 °F 45% 30.04 in - North 20.7 mph - -  
7:30 PM 55.4 °F - 39.2 °F 54% 30.04 in - North 18.4 mph - N/A   Clear
8:00 PM 55 °F - 39 °F 43% 30.04 in - North 18.4 mph - -  
8:00 PM 55.4 °F - 39.2 °F 54% 30.01 in - North 18.4 mph - N/A   Clear
8:30 PM 57.2 °F - 37.4 °F 48% 30.04 in - North 20.7 mph - N/A   Clear
9:00 PM 56 °F - 37 °F 37% 30.04 in 22 mi NNW 18.4 mph - -   Partly Cloudy
9:00 PM 57.2 °F - 37.4 °F 48% 30.01 in - NNW 18.4 mph - N/A   Clear
9:30 PM 57.2 °F - 37.4 °F 48% 30.01 in - North 21.9 mph - N/A   Clear
9:59 PM 57.2 °F - 39.2 °F 51% 30.01 in - North 21.9 mph 33.4 mph N/A   Clear
10:00 PM 57 °F - 38 °F 37% 30.02 in - North 23.0 mph - -  
10:00 PM 57.2 °F - 37.4 °F 48% 30.01 in - North 23.0 mph - N/A   Clear
10:06 PM 57.2 °F - 39.2 °F 51% 30.01 in - North 24.2 mph 36.8 mph N/A   Clear
10:30 PM 57.2 °F - 39.2 °F 51% 30.01 in - North 25.3 mph 38.0 mph N/A   Clear
11:00 PM 57 °F - 38 °F 38% 30.02 in - North 25.3 mph - -  
11:00 PM 57.2 °F - 39.2 °F 51% 30.01 in - North 25.3 mph - N/A   Clear
11:15 PM 57.2 °F - 37.4 °F 48% 30.01 in - North 25.3 mph 36.8 mph N/A   Clear
11:30 PM 57.2 °F - 39.2 °F 51% 30.01 in - North 26.5 mph - N/A   Clear